Location: Palmerston North
(40.3500°S, 175.6170°E)
Time: 08:55:59
(UTC+13:00)

ISS - Visible Passes

Search period start: 21 March 2019 00:00
Search period end: 31 March 2019 00:00
Orbit: 406 x 411 km, 51.6° (Epoch: 21 March)

Date Brightness Start Highest point End Pass type
(mag) Time Alt. Az. Time Alt. Az. Time Alt. Az.
25 Mar -0.9 06:40:36 10° NNE 06:42:34 15° NE 06:44:32 10° E visible
27 Mar -2.4 06:33:36 10° NNW 06:36:43 37° NE 06:39:51 10° ESE visible
28 Mar -1.5 05:44:20 16° NNE 05:45:47 20° NE 05:48:19 10° E visible
29 Mar -3.8 06:28:37 18° NW 06:30:59 82° SW 06:34:22 10° SE visible
30 Mar -3.2 05:39:59 51° NE 05:39:59 51° NE 05:43:12 10° ESE visible
